Weather History for Turaif, Saudi Arabia

Change the Weather History Date:

Wednesday, February 13, 2013

  Actual Average Record
Temperature  
Mean Temperature 47 °F -  
Max Temperature 59 °F 61 °F 71 °F (2001)
Min Temperature 35 °F 39 °F 30 °F (1998)
Degree Days  
Heating Degree Days 18    
Moisture  
Dew Point 37 °F    
Average Humidity 66    
Maximum Humidity 100    
Minimum Humidity 27    
Precipitation  
Precipitation 0.00 in - - ()
Sea Level Pressure  
Sea Level Pressure 30.14 in    
Wind  
Wind Speed 6 mph ()    
Max Wind Speed 14 mph    
Max Gust Speed -    
Visibility 6.0 miles    
Events      
Averages and records for this station are not official NWS values.
T = Trace of Precipitation, MM = Missing Value Source: Averaged Metar Reports

Daily Weather History Graph

Daily Weather History Graph

Search for Another Location

Airport:

Trip Planner

Search our weather history database for the weather conditions in past years. The results will help you decide how hot, cold, wet, or windy it might be!

Date:

Astronomy

Feb. 13, 2013 Rise Set
Actual Time 7:08 AM AST 6:10 PM AST
Civil Twilight 6:43 AM AST 6:35 PM AST
Nautical Twilight 6:15 AM AST 7:03 PM AST
Astronomical Twilight 5:46 AM AST 7:32 PM AST
Moon 8:42 AM AST (2/13) 9:33 PM AST (2/13)
Length of Visible Light 11h 51m
Length of Day
11h 01m
Waxing Crescent, 11% of the Moon is Illuminated
Feb 13
Waxing Crescent
Feb 17
First Quarter
Feb 25
Full
Mar 5
Last Quarter
Mar 11
New

Hourly Weather History & Observations

Time (AST) Temp. Windchill Dew Point Humidity Pressure Visibility Wind Dir Wind Speed Gust Speed Precip Events Conditions
12:00 AM 45 °F - 41 °F 81%  in 6 mi WSW 6.9 mph - -  
12:00 AM 44.6 °F 40.7 °F 41.0 °F 87% 30.09 in - WSW 6.9 mph - N/A   Clear
1:00 AM 42.8 °F 40.1 °F 39.2 °F 87% 30.12 in - WNW 4.6 mph - N/A   Clear
2:00 AM 41.0 °F 38.0 °F 37.4 °F 87% 30.12 in - WNW 4.6 mph - N/A   Clear
3:00 AM 41 °F - 37 °F 82%  in 6 mi NW 5.8 mph - -  
3:00 AM 41.0 °F 37.1 °F 37.4 °F 87% 30.12 in - NW 5.8 mph - N/A   Clear
4:00 AM 39.2 °F 35.0 °F 37.4 °F 93% 30.12 in - North 5.8 mph - N/A   Clear
5:00 AM 39.2 °F 33.6 °F 37.4 °F 93% 30.12 in - NNE 8.1 mph - N/A   Clear
6:00 AM 37 °F - 37 °F 100%  in 6 mi East 4.6 mph - -  
6:00 AM 37.4 °F 33.8 °F 37.4 °F 100% 30.12 in - East 4.6 mph - N/A   Clear
7:00 AM 35.6 °F 31.7 °F 35.6 °F 100% 30.15 in - ENE 4.6 mph - N/A   Clear
8:00 AM 39.2 °F 34.2 °F 39.2 °F 100% 30.15 in - East 6.9 mph - N/A   Clear
9:00 AM 45 °F - 41 °F 81%  in 6 mi ESE 9.2 mph - -  
9:00 AM 44.6 °F 39.7 °F 41.0 °F 87% 30.18 in - ESE 9.2 mph - N/A   Clear
10:00 AM 50.0 °F - 41.0 °F 71% 30.18 in - ESE 10.4 mph - N/A   Clear
11:00 AM 53.6 °F - 41.0 °F 62% 30.21 in - SE 9.2 mph - N/A   Clear
12:00 PM 55 °F - 37 °F 40%  in 6 mi SE 11.5 mph - -  
12:00 PM 55.4 °F - 37.4 °F 51% 30.21 in - SE 11.5 mph - N/A   Clear
1:00 PM 57.2 °F - 37.4 °F 48% 30.18 in - ESE 9.2 mph - N/A   Clear
2:00 PM 57.2 °F - 37.4 °F 48% 30.15 in - Calm Calm - N/A   Clear
3:00 PM 59 °F - 36 °F 29%  in 6 mi Calm Calm - -  
3:00 PM 59.0 °F - 35.6 °F 42% 30.15 in - Calm Calm - N/A   Clear
4:00 PM 59.0 °F - 35.6 °F 42% 30.12 in - SE 6.9 mph - N/A   Clear
5:00 PM 59.0 °F - 33.8 °F 39% 30.09 in - ESE 6.9 mph - N/A   Clear
6:00 PM 59 °F - 34 °F 27%  in 6 mi ESE 11.5 mph - -  
6:00 PM 59.0 °F - 33.8 °F 39% 30.09 in - ESE 11.5 mph - N/A   Clear
7:00 PM 57.2 °F - 35.6 °F 44% 30.12 in - ESE 11.5 mph - N/A   Clear
8:00 PM 51.8 °F - 35.6 °F 54% 30.12 in - East 11.5 mph - N/A   Clear
9:00 PM 52 °F - 36 °F 42%  in 6 mi East 11.5 mph - -  
9:00 PM 51.8 °F - 35.6 °F 54% 30.12 in - East 11.5 mph - N/A   Clear
10:00 PM 50.0 °F - 37.4 °F 62% 30.15 in - ESE 11.5 mph - N/A   Clear
11:00 PM 50.0 °F - 37.4 °F 62% 30.15 in - ESE 13.8 mph - N/A   Clear